Thermal, CA

9:31 AM PDT on September 27, 2016 (GMT -0700)
Desert Resorts Regional

Weather History for KTRM - April, 2014

Change the Weather History Date:

Monday, April 14, 2014

  Actual Average Record
Temperature  
Mean Temperature 72 °F 70 °F  
Max Temperature 91 °F 87 °F 105 °F (1985)
Min Temperature 52 °F 53 °F 41 °F (1993)
Degree Days  
Heating Degree Days 0 1  
Month to date heating degree days 9 15  
Since 1 July heating degree days 821 1172  
Cooling Degree Days 7 6  
Month to date cooling degree days 99 63  
Year to date cooling degree days 213 137  
Growing Degree Days 22 (Base 50)    
Moisture  
Dew Point 29 °F    
Average Humidity 36    
Maximum Humidity 66    
Minimum Humidity 5    
Precipitation  
Precipitation 0.00 in 0.00 in 0.00 in (2016)
Month to date precipitation 0.00 0.04  
Year to date precipitation 0.08 1.75  
Since 1 July precipitation 1.55  
Snow  
Snow 0.00 in - - ()
Month to date snowfall 0.0  
Year to date snowfall 0.0  
Snow Depth 0.00 in    
Sea Level Pressure  
Sea Level Pressure 29.99 in    
Wind  
Wind Speed 6 mph (NW)    
Max Wind Speed 15 mph    
Max Gust Speed 21 mph    
Visibility 10 miles    
Events      
T = Trace of Precipitation, MM = Missing Value Source: NWS Daily Summary

Daily Weather History Graph

Daily Weather History Graph

Search for Another Location

Airport or City:

Trip Planner

Search our weather history database for the weather conditions in past years. The results will help you decide how hot, cold, wet, or windy it might be!

Date:

Astronomy

Apr. 14, 2014 Rise Set
Actual Time 6:15 AM PDT 7:14 PM PDT
Civil Twilight 5:49 AM PDT 7:40 PM PDT
Nautical Twilight 5:19 AM PDT 8:10 PM PDT
Astronomical Twilight 4:48 AM PDT 8:42 PM PDT
Moon 6:58 PM PDT (4/14) 5:48 AM PDT (4/14)
Length of Visible Light 13h 50m
Length of Day
12h 59m
Full, 100% of the Moon is Illuminated
Apr 14
Full
Apr 15
Full
Apr 22
Last Quarter
Apr 28
New
May 6
First Quarter

Hourly Weather History & Observations

Time (PDT) Temp. Dew Point Humidity Pressure Visibility Wind Dir Wind Speed Gust Speed Precip Events Conditions
12:52 AM 70.0 °F 46.9 °F 44% 29.88 in 10.0 mi NNW 13.8 mph - N/A   Clear
2:52 AM 61.0 °F 44.1 °F 54% 29.93 in 10.0 mi Variable 3.5 mph - N/A   Clear
3:52 AM 61.0 °F 45.0 °F 56% 29.96 in 10.0 mi NNW 4.6 mph - N/A   Clear
5:52 AM 55.0 °F 44.1 °F 67% 30.01 in 10.0 mi NNW 4.6 mph - N/A   Clear
6:52 AM 59.0 °F 42.1 °F 53% 30.04 in 10.0 mi Calm Calm - N/A   Clear
7:52 AM 72.0 °F 37.9 °F 29% 30.08 in 10.0 mi Calm Calm - N/A   Clear
8:52 AM 75.9 °F 39.9 °F 27% 30.09 in 10.0 mi West 3.5 mph - N/A   Clear
9:52 AM 82.9 °F 19.0 °F 9% 30.09 in 10.0 mi North 9.2 mph - N/A   Clear
11:52 AM 87.1 °F 12.0 °F 6% 30.07 in 10.0 mi NNE 8.1 mph 20.7 mph N/A   Clear
12:52 PM 86.0 °F 10.0 °F 6% 30.08 in 10.0 mi West 9.2 mph - N/A   Clear
2:52 PM 89.1 °F 10.9 °F 5% 29.99 in 10.0 mi WSW 9.2 mph - N/A   Clear
3:52 PM 89.1 °F 9.0 °F 5% 29.97 in 10.0 mi West 5.8 mph - N/A   Clear
4:52 PM 90.0 °F 10.0 °F 5% 29.95 in 10.0 mi ESE 4.6 mph - N/A   Clear
5:52 PM 90.0 °F 12.0 °F 6% 29.94 in 10.0 mi NE 4.6 mph - N/A   Clear
6:52 PM 84.0 °F 28.0 °F 13% 29.93 in 10.0 mi Calm Calm - N/A   Clear
7:52 PM 72.0 °F 28.9 °F 20% 29.94 in 10.0 mi ESE 4.6 mph - N/A   Clear
8:52 PM 63.0 °F 32.0 °F 31% 29.95 in 10.0 mi SSE 3.5 mph - N/A   Clear
9:52 PM 60.1 °F 33.1 °F 36% 29.96 in 10.0 mi WNW 4.6 mph - N/A   Clear
10:52 PM 60.1 °F 33.1 °F 36% 29.96 in 10.0 mi Calm Calm - N/A   Clear
11:52 PM 57.9 °F 34.0 °F 41% 29.96 in 10.0 mi NW 3.5 mph - N/A   Clear